Regional Weather Roundup
Issued by NWS Cleveland, OH

Home | Current Version | Previous Version | Graphics & Text | Print | Product List | Glossary On
Versions: 1 2 3 4 5 6 7 8 9 10 11 12 13 14 15 16 17 18 19 20 21 22 23 24 25 26 27 28 29 30 31 32 33 34 35 36 37 38 39 40 41 42 43 44 45 46 47 48 49 50
000
ASUS41 KCLE 031902
RWRCLE
OHIO REGIONAL WEATHER ROUNDUP
NATIONAL WEATHER SERVICE CLEVELAND, OH
300 PM EDT TUE MAY 03 2016

NOTE: "FAIR" INDICATES FEW OR NO CLOUDS BELOW 12,000 FEET WITH NO
SIGNIFICANT WEATHER AND/OR OBSTRUCTIONS TO VISIBILITY.

OHZ001>008-015>018-024>027-034-035-043-044-032000-
   NORTHWEST OHIO

CITY           SKY/WX    TMP DP  RH WIND       PRES   REMARKS
DEFIANCE       CLOUDY    59  40  49 SW7       29.87F
FINDLAY        CLOUDY    60  40  47 VRB5      29.86F
TOLEDO EXPRESS MOSUNNY   61  38  42 N7        29.86F
TOLEDO EXEC    CLOUDY    58  45  62 E6        29.87F
LIMA           CLOUDY    56  46  69 NW6       29.88F
$$

OHZ009>014-019>023-028>033-038-089-032000-
   NORTHEAST OHIO

CITY           SKY/WX    TMP DP  RH WIND       PRES   REMARKS
CLE-HOPKINS    MOSUNNY   58  40  51 N10       29.90S
CLE-LAKEFRONT  SUNNY     51  42  71 NW7       29.88F
CUY CO. ARPT   NOT AVBL
LORAIN-ELYRIA  CLOUDY    57  36  45 N8        29.88F
ASHTABULA      PTSUNNY   54  42  64 N9        29.86F
AKRON-CANTON   PTSUNNY   60  41  49 N6        29.85F
WOOSTER        PTSUNNY   60  44  55 NW9       29.86F
MANSFIELD      CLOUDY    56  43  61 W6        29.87F
YOUNGSTOWN     MOSUNNY   60  44  55 NW12      29.84F
$$

OHZ042-051>053-060>062-070>072-077>081-032000-
  SOUTHWEST OHIO

CITY           SKY/WX    TMP DP  RH WIND       PRES   REMARKS
CINC-COVINGTON CLOUDY    58  49  72 N13       29.89F
CINC-LUNKEN    CLOUDY    57  51  80 N13       29.90F
HAMILTON       CLOUDY    58  47  66 N8        29.91F
DAYTON         CLOUDY    54  45  71 CALM      29.90F
WRIGHT-PAT AFB DRIZZLE   56  47  71 VRB2      29.89F
DAYTON GENERAL CLOUDY    54  46  74 VRB3      29.89F
WILMINGTON     CLOUDY    56  47  71 N8        29.88F
$$

OHZ036-037-039>041-045>050-054>059-063>069-073>076-082>088-032000-
  CENTRAL AND SOUTHEAST OHIO

CITY           SKY/WX    TMP DP  RH WIND       PRES   REMARKS
COLUMBUS       CLOUDY    58  45  62 N8        29.86F
OSU AIRPORT    CLOUDY    58  45  62 N5        29.86F
BOLTON FIELD   CLOUDY    57  46  67 NW5       29.87F
RICKENBACK AFB CLOUDY    59  45  59 W7        29.86S
NEWARK         CLOUDY    62  44  51 N5        29.85F
MARION         CLOUDY    57  45  64 NW7       29.88F
LANCASTER      CLOUDY    59  46  62 CALM      29.87F
ZANESVILLE     CLOUDY    60  45  57 W3        29.86F
NEW PHILLY     CLOUDY    62  42  47 N7        29.85F
$$




USA.gov is the U.S. government's official web portal to all federal, state and local government web resources and services.